Needles, CA

5:21 AM PST on December 11, 2016 (GMT -0800)
Needles

Weather History for KEED - May, 2014

Change the Weather History Date:

Friday, May 9, 2014

  Actual Average Record
Temperature  
Mean Temperature 80 °F 80 °F  
Max Temperature 91 °F 93 °F 110 °F (1923)
Min Temperature 70 °F 66 °F 45 °F (1930)
Degree Days  
Heating Degree Days 0    
Cooling Degree Days 16    
Growing Degree Days 30 (Base 50)    
Moisture  
Dew Point 29 °F    
Average Humidity 15    
Maximum Humidity 22    
Minimum Humidity 11    
Precipitation  
Precipitation 0.00 in 0.00 in 0.19 in (1922)
Month to date precipitation 0.03  
Year to date precipitation 2.29  
Sea Level Pressure  
Sea Level Pressure 29.78 in    
Wind  
Wind Speed 9 mph (SW)    
Max Wind Speed 16 mph    
Max Gust Speed 25 mph    
Visibility 10 miles    
Events      
T = Trace of Precipitation, MM = Missing Value Source: NWS Daily Summary

Daily Weather History Graph

Daily Weather History Graph

Search for Another Location

Airport or City:

Trip Planner

Search our weather history database for the weather conditions in past years. The results will help you decide how hot, cold, wet, or windy it might be!

Date:

Astronomy

May. 09, 2014 Rise Set
Actual Time 5:40 AM PDT 7:30 PM PDT
Civil Twilight 5:12 AM PDT 7:57 PM PDT
Nautical Twilight 4:39 AM PDT 8:31 PM PDT
Astronomical Twilight 4:04 AM PDT 9:06 PM PDT
Moon 2:43 PM PDT (5/9) 2:31 AM PDT (5/9)
Length of Visible Light 14h 44m
Length of Day
13h 49m
Waxing Gibbous, 74% of the Moon is Illuminated
May 9
Waxing Gibbous
May 14
Full
May 21
Last Quarter
May 28
New
Jun 5
First Quarter

Hourly Weather History & Observations

Time (PDT) Temp. Dew Point Humidity Pressure Visibility Wind Dir Wind Speed Gust Speed Precip Events Conditions
12:56 AM 75.9 °F 21.9 °F 13% 29.82 in 10.0 mi WSW 12.7 mph - N/A   Clear
1:56 AM 75.0 °F 21.0 °F 13% 29.83 in 10.0 mi Calm Calm - N/A   Clear
2:56 AM 73.9 °F 24.1 °F 16% 29.83 in 10.0 mi West 11.5 mph - N/A   Clear
3:56 AM 72.0 °F 25.0 °F 17% 29.83 in 10.0 mi SW 8.1 mph - N/A   Clear
4:56 AM 71.1 °F 25.0 °F 18% 29.83 in 10.0 mi SW 9.2 mph - N/A   Clear
5:56 AM 70.0 °F 26.1 °F 19% 29.83 in 10.0 mi Calm Calm - N/A   Clear
6:56 AM 70.0 °F 28.9 °F 22% 29.85 in 10.0 mi Calm Calm - N/A   Clear
7:56 AM 75.0 °F 30.0 °F 19% 29.85 in 10.0 mi ESE 5.8 mph - N/A   Clear
8:56 AM 78.1 °F 30.9 °F 18% 29.86 in 10.0 mi Variable 5.8 mph - N/A   Clear
9:56 AM 82.0 °F 32.0 °F 16% 29.85 in 10.0 mi WSW 9.2 mph 17.3 mph N/A   Clear
10:56 AM 84.0 °F 30.0 °F 14% 29.84 in 10.0 mi SW 13.8 mph - N/A   Clear
11:56 AM 87.1 °F 30.9 °F 13% 29.82 in 10.0 mi SW 15.0 mph 25.3 mph N/A   Clear
12:56 PM 87.1 °F 32.0 °F 14% 29.81 in 10.0 mi SW 12.7 mph 21.9 mph N/A   Clear
1:56 PM 90.0 °F 30.0 °F 12% 29.78 in 10.0 mi WSW 10.4 mph 21.9 mph N/A   Clear
2:56 PM 89.1 °F 32.0 °F 13% 29.75 in 10.0 mi Variable 5.8 mph - N/A   Clear
3:56 PM 90.0 °F 30.9 °F 12% 29.72 in 10.0 mi SSW 8.1 mph 18.4 mph N/A   Clear
4:56 PM 91.0 °F 30.0 °F 11% 29.71 in 10.0 mi SW 16.1 mph - N/A   Clear
5:56 PM 91.0 °F 30.0 °F 11% 29.70 in 10.0 mi WSW 15.0 mph - N/A   Clear
6:56 PM 89.1 °F 30.0 °F 12% 29.69 in 10.0 mi SW 8.1 mph - N/A   Clear
7:56 PM 87.1 °F 30.9 °F 13% 29.69 in 10.0 mi SW 8.1 mph - N/A   Clear
8:56 PM 84.0 °F 30.0 °F 14% 29.70 in 10.0 mi SSW 5.8 mph - N/A   Clear
9:56 PM 82.9 °F 30.9 °F 15% 29.71 in 10.0 mi West 10.4 mph - N/A   Clear
10:56 PM 81.0 °F 30.9 °F 16% 29.71 in 10.0 mi WNW 12.7 mph - N/A   Clear
11:56 PM 79.0 °F 26.1 °F 14% 29.70 in 10.0 mi WSW 10.4 mph - N/A   Clear